Simultaneous Nadir Overpasses (SNOs) Predictions

Prediction of SNOs between GOES-14 and NPP Satellite Orbit:

Table of predicted SNOs for the next 14.0 days since TLE Epoch: 9/23/2023
Index Date Time (GOES-14) GOES-14 Lat,Lon NPP Lat,Lon Distance(km) Time Diff (sec)
1 09/24/2023 08:43:44 0.32,-108.61 0.59,-109.70 124.98 80
2 09/25/2023 08:27:38 0.33,-108.60 -0.44,-105.17 391.64 80
3 09/26/2023 20:46:52 -0.30,-108.51 -0.75,-110.47 222.89 80
4 09/27/2023 20:30:46 -0.31,-108.51 0.23,-105.92 294.21 80
5 09/29/2023 08:49:53 0.29,-108.60 0.86,-111.21 296.69 80
6 09/30/2023 08:33:47 0.30,-108.60 -0.13,-106.67 220.44 80
7 10/01/2023 20:53:01 -0.28,-108.51 -1.04,-111.97 393.92 80
8 10/02/2023 20:36:55 -0.29,-108.51 -0.05,-107.43 123.22 80
9 10/04/2023 08:56:01 0.26,-108.60 1.19,-112.70 467.72 80
10 10/05/2023 08:39:54 0.27,-108.60 0.20,-108.16 49.25 80
